Regional Weather Roundup
Issued by NWS Charleston, SC

Current Version | Previous Version | Text Only | Print | Product List | Glossary Off
Versions: 1 2 3 4 5 6 7 8 9 10 11 12 13 14 15 16 17 18 19 20 21 22 23 24 25 26 27 28 29 30 31 32 33 34 35 36 37 38 39 40 41 42 43 44 45 46 47 48 49 50
000 ASUS42 KCHS 250213 RWRCHS REGIONAL WEATHER ROUNDUP NATIONAL WEATHER SERVICE CHARLESTON SC 1000 PM EDT SUN JUL 24 2016 NOTE: "FAIR" INDICATES FEW OR NO CLOUDS BELOW 12,000 FEET WITH NO SIGNIFICANT WEATHER AND/OR OBSTRUCTIONS TO VISIBILITY. NOT ALL STATIONS ARE QUALITY CONTROLLED. USE DATA WITH CAUTION... ESPECIALLY DEWPOINT OBSERVATIONS. SCZ027-030-031-034>040-042>050-250300- ...SOUTHEAST SOUTH CAROLINA... CITY SKY/WX TMP DP RH WIND PRES REMARKS N CHARLESTON PTCLDY 82 75 79 S7 30.04R WATERFRONT PRK N/A 84 78 82 S6 30.02R HX 95 MOUNT PLEASANT FAIR 82 77 83 CALM 30.05R HX 91 JOHNS ISLAND FAIR 82 77 83 S6 30.04S HX 91 PINOPOLIS N/A 81 77 89 VRB2 29.96R MONCKS CORNER FAIR 77 73 88 S3 30.04R SUMMERVILLE NOT AVBL BEAUFORT MCAS CLEAR 84 75 74 S5 30.04R HX 92 BEAUFORT ARPT FAIR 82 73 74 S5 30.04R HILTON HEAD IS CLEAR 84 75 74 S9 30.05R HX 92 WALTERBORO CLEAR 82 73 74 S5 30.05R ALLENDALE FAIR 84 77 79 CALM 30.03R HX 94 ...SOUTHERN MIDLANDS AND PEE DEE... CITY SKY/WX TMP DP RH WIND PRES REMARKS GEORGETOWN FAIR 79 75 89 S5 30.05R KINGSTREE FAIR 79 73 83 SE3 30.04R ORANGEBURG CLEAR 83 77 82 CALM 30.04R HX 92 BARNWELL NOT AVBL AIKEN MOCLDY 81 73 78 CALM 30.08R MANNING FAIR 82 73 74 S6 30.04R COLUMBIA PTCLDY 87 74 64 CALM 30.02R HX 95 SUMTER CLEAR 83 74 75 S7 30.01R HX 90 FLORENCE CLEAR 83 76 79 S7 30.04R HX 91 MYRTLE BEACH CLEAR 84 72 65 SW10 30.05R N MYRTLE BEACH PTCLDY 84 78 82 SW12 30.04R HX 95 $$ GAZ063-065-086>088-099>101-113>116-118-119-134>141-150-250300- ...SOUTHEAST GEORGIA... CITY SKY/WX TMP DP RH WIND PRES REMARKS SAVANNAH ARPT CLEAR 80 73 79 S7 30.04R HUNTER AAF CLEAR 83 77 82 S5 30.02R HX 92 FORT STEWART CLEAR 77 74 91 SE1 30.01R STATESBORO CLEAR 79 76 90 CALM 30.04R SYLVANIA NOT AVBL CLAXTON FAIR 78 75 90 CALM 30.04R ...CSRA...CENTRAL AND FAR SOUTHEAST GEORGIA... CITY SKY/WX TMP DP RH WIND PRES REMARKS THOMSON NOT AVBL AUGUSTA-BUSH CLEAR 85 72 65 S8 30.01R HX 91 AUGUSTA-DANIEL PTCLDY 88 72 58 S9 30.04R HX 94 SWAINSBORO FAIR 75 73 94 CALM 30.05R VIDALIA PTCLDY 82 70 65 CALM 30.04S EASTMAN FAIR 85 60 42 SE5 30.06R HAZLEHURST CLOUDY 85 73 68 CALM 30.03R HX 91 ALMA PTCLDY 76 72 87 CALM 30.03R WAYCROSS CLEAR 80 77 92 CALM 30.04R JESUP FAIR 81 77 89 CALM 30.04R BAXLEY FAIR 79 77 94 CALM 30.03R BRUNSWICK CLEAR 86 77 74 S5 30.05S HX 97 SAINT SIMONS CLEAR 85 72 65 S9 30.04R HX 91 $$ SCZ027-028-034-036>038-045-046-048>050-GAZ119-141-250300- ...LAKE AND SUPPLEMENTAL COASTAL OBSERVATIONS... STATION/POSITION TIME TEMP WIND PRES WAVE SWELL AIR SEA DIR/SP/G HT/PER HT/PER/DIR (UTC) (F) (DEG/KT/KT) (MB) (FT/S) (FT/S/D) WINYAH BAY NOT AVBL LAKE MURRAY 0100 90 180/ 9/ 12 1015.2R ACE BASIN NERRS NOT AVBL FORT PULASKI 0100 85 88 160/ 5/ 8 N/A SAPELO ISLAND 0100 85 150/ 7 1017.0S $$ ANZ835-935-AMZ111-154-330-350-352-354-370-450-454-472-250300- ...C-MAN AND BUOY OBSERVATIONS... STATION/POSITION TIME TEMP WIND PRES WAVE SWELL AIR SEA DIR/SP/G HT/PER HT/PER/DIR (UTC) (F) (DEG/KT/KT) (MB) (FT/S) (FT/S/D) BUOY 41004 0150 85 86 190/ 10/ 12 1017.0R 2/ 8 2/130/ 8 BUOY 41008 0150 86 87 150/ 14/ 16 1016.9F 2/ 8 2/100/ 8 FOLLY BEACH CMAN 0200 84 190/ 12/ 13 1017.6R CAPERS NEARSHORE 0108 85 84 200/ 12/ 16 1016.9R FRIPP NEARSHORE 0108 85 87 190/ 14/ 17 1016.5R STATION/POSITION TIME TEMP WIND PRES WAVE SWELL AIR SEA DIR/SP/G HT/PER HT/PER/DIR (UTC) (F) (DEG/KT/KT) (MB) (FT/S) (FT/S/D) 5E ST. MARYS GA 0101 87 N/A 3/ 4 FRYING PAN BUOY 0100 85 86 190/ 10/ 12 1017.0R BUOY 41025 0150 85 85 220/ 14/ 16 1017.6R 2/ 8 2/130/ 8 CAPE LOOKOUT NC 0200 83 210/ 9/ 11 1017.5R BUOY 41002 0150 84 85 180/ 2/ 4 1019.2R 2/ 9 2/ 80/ 9 BUOY 41010 0120 85 87 150/ 6/ 10 1018.2 ST AUGUSTINE FL 0200 84 87 150/ 14/ 16 1018.3R $$

USA.gov is the U.S. government's official web portal to all federal, state and local government web resources and services.